Tracking 19562 objects as of 25-Mar-2019
HD Live streaming from Space Station
objects crossing your sky now

WGS 8 (USA 272)

Track WGS 8 (USA 272) now!


NORAD ID: 41879
Int'l Code: 2016-075A
Perigee: 35,792.9 km
Apogee: 35,794.3 km
Inclination: 0.0 °
Period: 1,436.1 minutes
Semi major axis: 42164 km
RCS: Unknown
Launch date: December 7, 2016
Source: United States (US)
Launch site: AIR FORCE EASTERN TEST RANGE (AFETR)
aabbcc
Your satellite tracking list
Your tracking list is empty




NASA's NSSDC Master Catalog

Two Line Element Set (TLE):
1 41879U 16075A   19083.84301341 -.00000225  00000-0  00000+0 0  9992
2 41879   0.0045 188.4062 0000167 254.9209 191.9403  1.00272277  8434
Source of the keplerian elements: McCants